DW6064 Weather Reports


time (UTC)temp
C
wind
direction
speed
KPH
gust
KPH
rain 1hr
cm
rain 24hr
cm
rain mn
cm
humidity
%
barometer
mb
20260503012530 9 340 6.4 20.9 0.00 0.00 0.00 55 1013.9
20260503012024 9 355 11.3 20.9 0.00 0.00 0.00 55 1013.7
20260503011602 9 13 9.7 20.9 0.00 0.00 0.00 55 1013.5
20260503011040 9 43 9.7 20.9 0.00 0.00 0.00 56 1013.5
20260503010541 9 34 9.7 27.4 0.00 0.00 0.00 55 1013.5
20260503010043 9 346 9.7 27.4 0.00 0.00 0.00 54 1013.5
20260503005533 10 327 8.0 22.5 0.00 0.00 0.00 54 1013.4
20260503005056 10 318 11.3 22.5 0.00 0.00 0.00 54 1013.1
20260503004530 10 15 9.7 20.9 0.00 0.00 0.00 54 1013.2
20260503004024 10 313 4.8 20.9 0.00 0.00 0.00 53 1013.1
20260503003535 10 323 12.9 24.1 0.00 0.00 0.00 53 1013.1
20260503003029 10 321 14.5 24.1 0.00 0.00 0.00 53 1013.2
20260503002539 10 344 11.3 24.1 0.00 0.00 0.00 52 1013.1
20260503002057 10 334 12.9 20.9 0.00 0.00 0.00 52 1013.0
20260503001527 10 333 4.8 19.3 0.00 0.00 0.00 53 1013.1
20260503001042 10 360 9.7 19.3 0.00 0.00 0.00 53 1012.9
20260503000539 11 5 9.7 19.3 0.00 0.00 0.00 53 1012.9
20260503000038 11 23 8.0 20.9 0.00 0.00 0.00 52 1012.9
20260502235534 11 321 11.3 20.9 0.00 0.00 0.00 52 1012.9
20260502235031 11 342 6.4 16.1 0.00 0.00 0.00 52 1012.8
20260502234548 11 327 6.4 19.3 0.00 0.00 0.00 52 1012.8
20260502234045 11 300 11.3 19.3 0.00 0.00 0.00 51 1012.8
20260502233532 11 292 8.0 20.9 0.00 0.00 0.00 51 1012.7
20260502233025 11 343 12.9 22.5 0.00 0.00 0.00 50 1012.7
20260502232535 11 318 14.5 24.1 0.00 0.00 0.00 50 1012.6
20260502232026 11 311 14.5 24.1 0.00 0.00 0.00 50 1012.5
20260502231541 11 341 11.3 25.7 0.00 0.00 0.00 49 1012.5
20260502231035 11 325 16.1 29.0 0.00 0.00 0.00 49 1012.5
20260502230526 12 333 19.3 29.0 0.00 0.00 0.00 48 1012.4
20260502230047 12 286 14.5 27.4 0.00 0.00 0.00 47 1012.4
20260502225543 12 315 14.5 22.5 0.00 0.00 0.00 45 1012.4
20260502225036 12 331 8.0 22.5 0.00 0.00 0.00 45 1012.3
20260502224531 12 309 16.1 22.5 0.00 0.00 0.00 44 1012.2
20260502224050 12 350 9.7 22.5 0.00 0.00 0.00 44 1012.1
20260502223541 13 342 6.4 20.9 0.00 0.00 0.00 45 1012.0
20260502223040 13 319 12.9 20.9 0.00 0.00 0.00 44 1012.1
20260502222542 13 313 11.3 20.9 0.00 0.00 0.00 44 1012.0
20260502222043 13 338 9.7 19.3 0.00 0.00 0.00 44 1011.9
20260502221536 13 313 11.3 19.3 0.00 0.00 0.00 42 1012.0
20260502221032 13 333 8.0 17.7 0.00 0.00 0.00 43 1011.9
20260502220526 13 331 6.4 22.5 0.00 0.00 0.00 42 1012.0
20260502220105 13 298 9.7 22.5 0.00 0.00 0.00 42 1012.0
20260502215543 13 338 8.0 17.7 0.00 0.00 0.00 42 1012.0
20260502215042 13 291 11.3 17.7 0.00 0.00 0.00 41 1012.1
20260502214558 13 300 3.2 19.3 0.00 0.00 0.00 41 1012.0
20260502214035 13 318 8.0 17.7 0.00 0.00 0.00 42 1012.1
20260502213529 13 329 9.7 20.9 0.00 0.00 0.00 39 1012.1
20260502213025 13 280 9.7 24.1 0.00 0.00 0.00 40 1012.1
20260502212537 14 304 12.9 24.1 0.00 0.00 0.00 39 1012.0
20260502212056 14 296 14.5 22.5 0.00 0.00 0.00 40 1011.8
20260502211531 15 252 6.4 25.7 0.00 0.00 0.00 39 1011.8
20260502211024 15 342 12.9 25.7 0.00 0.00 0.00 38 1011.7
20260502210602 15 355 11.3 17.7 0.00 0.00 0.00 41 1011.7
20260502210037 14 295 11.3 24.1 0.00 0.00 0.00 41 1011.7
20260502205540 14 271 9.7 24.1 0.00 0.00 0.00 39 1011.7
20260502205033 14 246 11.3 19.3 0.00 0.00 0.00 41 1011.7
20260502204525 14 257 9.7 17.7 0.00 0.00 0.00 41 1011.7
20260502204044 14 292 11.3 17.7 0.00 0.00 0.00 42 1011.8
20260502203540 14 300 9.7 20.9 0.00 0.00 0.00 40 1011.8
20260502203040 14 327 11.3 25.7 0.00 0.00 0.00 41 1011.7
20260502202539 14 329 12.9 25.7 0.00 0.00 0.00 41 1011.8
20260502202040 14 355 9.7 22.5 0.00 0.00 0.00 40 1011.8
20260502201539 14 284 12.9 19.3 0.00 0.00 0.00 42 1011.8
20260502201038 14 10 6.4 20.9 0.00 0.00 0.00 43 1011.8
20260502200525 14 332 9.7 20.9 0.00 0.00 0.00 42 1011.9
20260502200045 14 246 8.0 24.1 0.00 0.00 0.00 40 1012.0
20260502195602 15 309 17.7 25.7 0.00 0.00 0.00 39 1012.1
20260502195041 15 299 16.1 25.7 0.00 0.00 0.00 39 1012.1
20260502194600 15 319 14.5 24.1 0.00 0.00 0.00 40 1012.2
20260502194042 15 311 9.7 17.7 0.00 0.00 0.00 41 1012.2
20260502193536 15 339 9.7 19.3 0.00 0.00 0.00 40 1012.3
20260502193032 15 253 9.7 20.9 0.00 0.00 0.00 42 1012.4
20260502192553 15 316 9.7 22.5 0.00 0.00 0.00 41 1012.5
20260502192032 15 296 12.9 27.4 0.00 0.00 0.00 39 1012.4
20260502191527 15 314 8.0 22.5 0.00 0.00 0.00 41 1012.6
20260502191027 15 302 12.9 22.5 0.00 0.00 0.00 39 1012.6
20260502190601 15 347 11.3 22.5 0.00 0.00 0.00 41 1012.5
20260502190037 15 287 9.7 20.9 0.00 0.00 0.00 38 1012.8
20260502185529 15 278 11.3 25.7 0.00 0.00 0.00 41 1012.7
20260502185026 15 323 19.3 25.7 0.00 0.00 0.00 39 1012.8
20260502184540 15 314 17.7 25.7 0.00 0.00 0.00 39 1012.7
20260502184041 15 238 6.4 19.3 0.00 0.00 0.00 42 1012.8
20260502183535 15 225 8.0 16.1 0.00 0.00 0.00 41 1012.9
20260502183030 15 279 6.4 17.7 0.00 0.00 0.00 41 1012.9
20260502182604 15 251 9.7 17.7 0.00 0.00 0.00 41 1012.9
20260502182042 15 260 3.2 16.1 0.00 0.00 0.00 43 1013.0
20260502181556 15 259 8.0 16.1 0.00 0.00 0.00 39 1013.1
20260502181032 15 261 1.6 16.1 0.00 0.00 0.00 42 1013.1
20260502180525 15 298 11.3 16.1 0.00 0.00 0.00 37 1013.2
20260502180105 15 273 4.8 19.3 0.00 0.00 0.00 39 1013.2
20260502164041 15 315 6.4 25.7 0.00 0.00 0.00 46 1013.4
20260502163539 15 287 9.7 25.7 0.00 0.00 0.00 43 1013.4
20260502163040 14 319 8.0 16.1 0.00 0.00 0.00 48 1013.4
20260502162533 14 346 6.4 14.5 0.00 0.00 0.00 45 1013.5
20260502162027 14 15 3.2 17.7 0.00 0.00 0.00 42 1013.5
20260502161542 13 332 8.0 17.7 0.00 0.00 0.00 41 1013.6
20260502161038 13 317 6.4 17.7 0.00 0.00 0.00 42 1013.6
20260502160530 13 325 6.4 17.7 0.00 0.00 0.00 42 1013.8
20260502152037 13 134 3.2 11.3 0.00 0.00 0.00 42 1013.8
20260502151530 13 232 3.2 12.9 0.00 0.00 0.00 44 1013.7
20260502151030 13 273 4.8 12.9 0.00 0.00 0.00 45 1013.8
20260502150524 13 318 6.4 12.9 0.00 0.00 0.00 45 1013.9
20260502130532 9 331 6.4 12.9 0.00 0.00 0.00 62 1014.2
20260502123542 7 308 3.2 14.5 0.00 0.00 0.00 68 1014.2
20260502123042 7 331 3.2 14.5 0.00 0.00 0.00 69 1014.2
20260502122541 7 338 8.0 14.5 0.00 0.00 0.00 68 1014.1
20260502122041 7 304 6.4 19.3 0.00 0.00 0.00 69 1014.1
20260502121540 7 309 9.7 19.3 0.00 0.00 0.00 69 1014.0
20260502121102 7 309 6.4 16.1 0.00 0.00 0.00 69 1014.1
20260502120541 7 22 4.8 16.1 0.00 0.00 0.00 71 1014.1
20260502115602 6 15 3.2 9.7 0.00 0.00 0.00 73 1014.3
20260502115040 6 5 1.6 12.9 0.00 0.00 0.00 73 1014.3
20260502114540 6 24 6.4 12.9 0.00 0.00 0.00 73 1014.3
20260502114037 6 326 3.2 9.7 0.00 0.00 0.00 74 1014.3
20260502113533 6 5 1.6 4.8 0.00 0.00 0.00 75 1014.3
20260502113034 6 57 0.0 4.8 0.00 0.00 0.00 75 1014.3
20260502112529 6 57 0.0 4.8 0.00 0.00 0.00 75 1014.3
20260502112026 6 57 1.6 3.2 0.00 0.00 0.00 75 1014.3
20260502111543 6 57 0.0 1.6 0.00 0.00 0.00 75 1014.1
20260502111042 6 57 0.0 1.6 0.00 0.00 0.00 75 1014.1
20260502110536 6 57 0.0 1.6 0.00 0.00 0.00 76 1014.1
20260502110058 6 57 0.0 4.8 0.00 0.00 0.00 76 1014.0
20260502105532 5 57 1.6 6.4 0.00 0.00 0.00 75 1014.1
20260502105053 5 49 3.2 6.4 0.00 0.00 0.00 75 1014.3
20260502104527 5 61 1.6 9.7 0.00 0.00 0.00 75 1014.4
20260502104025 5 355 3.2 9.7 0.00 0.00 0.00 75 1014.2
20260502103539 5 321 4.8 8.0 0.00 0.00 0.00 75 1014.0
20260502103041 5 325 3.2 8.0 0.00 0.00 0.00 75 1014.1
20260502102541 5 312 1.6 8.0 0.00 0.00 0.00 75 1014.3
20260502102043 5 331 4.8 8.0 0.00 0.00 0.00 75 1014.4
20260502101543 5 323 3.2 6.4 0.00 0.00 0.00 75 1014.4
20260502101025 5 316 3.2 8.0 0.00 0.00 0.00 75 1014.2
20260502100541 6 298 1.6 8.0 0.00 0.00 0.00 74 1014.1
20260502091040 6 300 1.6 11.3 0.00 0.00 0.00 73 1013.6
20260502090540 7 338 3.2 9.7 0.00 0.00 0.00 73 1013.7
20260502071526 7 286 4.8 14.5 0.00 0.00 0.00 71 1012.8
20260502071025 7 299 4.8 11.3 0.00 0.00 0.00 72 1012.7
20260502070600 7 325 3.2 6.4 0.00 0.00 0.00 74 1012.7
20260502070043 7 227 0.0 3.2 0.00 0.00 0.00 73 1012.7
20260502065542 8 304 0.0 11.3 0.00 0.00 0.00 71 1012.5
20260502065043 8 304 0.0 11.3 0.00 0.00 0.00 70 1012.4
20260502064536 8 293 1.6 6.4 0.00 0.00 0.00 71 1012.4
20260502064057 8 285 1.6 6.4 0.00 0.00 0.00 70 1012.4
20260502063530 8 294 1.6 4.8 0.00 0.00 0.00 70 1012.5
20260502063026 8 277 1.6 8.0 0.00 0.00 0.00 70 1012.5
20260502062541 8 282 1.6 11.3 0.00 0.00 0.00 70 1012.4
20260502062038 8 271 3.2 19.3 0.00 0.00 0.00 69 1012.4
20260502061529 8 268 6.4 19.3 0.00 0.00 0.00 70 1012.4
20260502061027 8 243 8.0 14.5 0.00 0.00 0.00 69 1012.7
20260502060546 8 180 8.0 14.5 0.00 0.00 0.00 70 1012.8
20260502060044 9 221 8.0 14.5 0.00 0.00 0.00 70 1012.8
20260502055601 9 257 4.8 11.3 0.00 0.00 0.00 70 1012.8
20260502055043 9 267 4.8 20.9 0.00 0.00 0.00 69 1012.7
20260502054542 9 230 9.7 20.9 0.00 0.00 0.00 70 1012.7
20260502054045 10 225 3.2 6.4 0.00 0.00 0.00 72 1012.8
20260502053524 10 150 3.2 4.8 0.00 0.00 0.00 72 1012.7
20260502053044 10 150 3.2 11.3 0.00 0.00 0.00 72 1012.7
20260502052535 10 141 1.6 11.3 0.00 0.00 0.00 71 1012.7
20260502052030 10 148 3.2 4.8 0.00 0.00 0.00 72 1012.7
20260502051524 10 148 1.6 3.2 0.00 0.00 0.00 71 1012.7
20260502051045 10 253 0.0 4.8 0.00 0.00 0.00 71 1012.6
20260502050543 10 294 0.0 12.9 0.00 0.00 0.00 71 1012.5
20260502050042 10 250 1.6 17.7 0.00 0.00 0.00 71 1012.7
20260502045541 10 269 9.7 17.7 0.00 0.00 0.00 72 1012.8
20260502045036 10 270 4.8 12.9 0.00 0.00 0.00 73 1012.7
20260502044531 10 251 6.4 12.9 0.00 0.00 0.00 73 1012.7
20260502044052 10 240 4.8 14.5 0.00 0.00 0.00 73 1012.6
20260502043525 10 246 6.4 14.5 0.00 0.00 0.00 74 1012.7
20260502043043 10 244 4.8 14.5 0.00 0.00 0.00 75 1012.8
20260502042541 10 252 4.8 14.5 0.00 0.00 0.00 75 1012.7
20260502042039 10 200 3.2 6.4 0.00 0.00 0.00 77 1012.6
20260502041534 10 238 3.2 11.3 0.00 0.00 0.00 76 1012.7
20260502041030 11 254 1.6 11.3 0.00 0.00 0.00 76 1012.5
20260502040542 11 228 1.6 3.2 0.00 0.00 0.00 75 1012.5
20260502040039 11 213 1.6 3.2 0.00 0.00 0.00 75 1012.4
20260502035541 11 213 0.0 3.2 0.00 0.00 0.00 75 1012.5
20260502035041 11 210 1.6 8.0 0.00 0.00 0.00 75 1012.5
20260502034541 11 193 1.6 8.0 0.00 0.00 0.00 74 1012.4
20260502034103 11 202 1.6 8.0 0.00 0.00 0.00 75 1012.3
20260502033542 11 194 6.4 8.0 0.00 0.00 0.00 74 1012.1
20260502033043 11 194 4.8 8.0 0.00 0.00 0.00 74 1012.1
20260502032541 11 207 0.0 6.4 0.00 0.00 0.00 75 1012.2
20260502032034 11 218 1.6 12.9 0.00 0.00 0.00 73 1012.2
20260502031528 11 248 4.8 12.9 0.00 0.00 0.00 72 1012.2
20260502031024 11 301 1.6 16.1 0.00 0.00 0.00 72 1012.1
20260502030541 11 273 4.8 17.7 0.00 0.00 0.00 71 1012.1
20260502030044 11 265 8.0 17.7 0.00 0.00 0.00 69 1012.2
20260502025535 11 274 8.0 14.5 0.00 0.00 0.00 67 1012.1
20260502025033 11 246 3.2 11.3 0.00 0.00 0.00 70 1012.2
20260502024552 11 308 0.0 8.0 0.00 0.00 0.00 70 1012.0
20260502024053 12 266 0.0 4.8 0.00 0.00 0.00 70 1012.1
20260502023527 12 266 3.2 4.8 0.00 0.00 0.00 70 1012.0
20260502023051 12 355 1.6 4.8 0.00 0.00 0.00 70 1011.9
20260502022531 12 309 1.6 4.8 0.00 0.00 0.00 70 1012.1
20260502022029 12 341 1.6 8.0 0.00 0.00 0.00 69 1012.2
20260502021603 12 344 1.6 8.0 0.00 0.00 0.00 67 1012.0
20260502021044 12 36 1.6 9.7 0.00 0.00 0.00 67 1012.1
20260502020542 12 13 4.8 12.9 0.00 0.00 0.00 67 1011.9
20260502020044 12 316 6.4 12.9 0.00 0.00 0.00 68 1012.0
20260502015603 12 5 3.2 14.5 0.00 0.00 0.00 67 1011.9
20260502015044 12 355 6.4 14.5 0.00 0.00 0.00 68 1011.9
20260502014541 12 11 4.8 16.1 0.00 0.00 0.00 68 1011.9
20260502014035 12 30 4.8 16.1 0.00 0.00 0.00 68 1011.8
20260502013550 12 11 6.4 16.1 0.00 0.00 0.00 67 1011.8
20260502013048 12 12 3.2 12.9 0.00 0.00 0.00 66 1011.6